UNAMSAT

Satellite information

Favourite Embed

Satellite Type and Status

PAYLOADIN ORBIT

Key statistics

Satellite UNAMSAT at a glance.

Uptime

10474

Days in orbit

Revolutions

≈ 13.7

Per day

Orbit

LEO

Low Earth Orbit

Inclination

82.9

Latest

Satellite identification and parameters

Extended collection of information and parameters for UNAMSAT.

Object identification

Identified? True

Debris? False

Object name: UNAMSAT

International designator: 1996-052B

Object number (NORAD): 24305

Object ID (CCSDS): 24305

Country: MEXICO (MEX)

Current information (Y/N): Y

RCS size: MEDIUM

Orbital parameters

Period: 104.801 minutes

Inclination: 82.9404 deg

SMA: 7363.243 km

Apoapsis: 1006.365 km

Periapsis: 963.851 km

RAAN: 18.8187 deg

Eccentricy: 0.0028869

Argument of periapsis: 296.7733 deg

Mean anomaly: 63.047 deg

Mean motion: 13.74039055 rev/day

Mean motion (dot): 0.00000077 rev/day2

B* drag term: 0.000066567 1/REarth

Two-line elements (TLE)

Creation date: May 10, 2025, 2:32 a.m.

Reference frame: TEME

Reference center: EARTH

Epoch: May 9, 2025, 5:54 p.m. UTC

TLE line 0: 0 UNAMSAT

TLE line 1: 1 24305U 96052B 25129.74611436 .00000077 00000-0 66567-4 0 9995

TLE line 2: 2 24305 82.9404 18.8187 0028869 296.7733 63.0470 13.74039055437210

Live tracking on map

Real-time ground track for satellite UNAMSAT.

In-orbit conjunctions

A list of the most updated potential collisions computed for object UNAMSAT.

Target Orbit TCA Probability of collision Miss distance Type
COSMOS 1275 DEB LEO 2024-11-20 23:37:51 0.0002421571 49.0 (m) DEBRIS
THORAD AGENA D DEB SSO 2024-10-13 04:52:16 0.000242951 220.0 (m) DEBRIS

Associated space launch

Navigation satellite providing location information for the Tsiklon-B navigation system

UNAMSAT was lifted into orbit during the mission ‘Kosmos-3M | Parus 86’, on board a Kosmos-3M space rocket.

The launch took place on Sept. 5, 1996, 12:47 p.m. from 132/1 (132L).

For more information about the launch, click the button.

Launch to space Kosmos-3M | Parus 86
Kosmos-3M | Parus 86

Agency: N/A

Status: Launch Successful

Launch date: Sept. 5, 1996, 12:47 p.m. UTC

Rocket: Kosmos-3M

Launch pad: 132/1 (132L)

Location: Plesetsk Cosmodrome, Russian Federation

...

Latest news about this satellite

There are no fresh news available about this satellite. Check back as we update our databases every day.


Newsletter sign-up

Weekly statistics, charts and insights to help you stay on top of the space industry.